QPF
0.00 0.00 0.00 0.01 0.01 0.01 0.01 0.01 0.01 0.00 0.01 0.01 0.02 0.01 0.01 0.02 0.03 0.03 0.04 0.05 0.06 0.05 0.06 0.05 0.04 0.03 0.03 0.04 0.04 0.04 0.02 0.02 0.01 0.01 0.01 0.01 0.00 0.00 0.00 0.01 0.01 0.01 0.01 0.01
0.01 0.01 0.01 0.01 0.00 0.01 0.01 0.01 0.01 0.01 0.01 0.01 0.02 0.01 0.01 0.01 0.02 0.02 0.03 0.05 0.07 0.06 0.05 0.05 0.05 0.05 0.05 0.05 0.04 0.03 0.02 0.02 0.01 0.01 0.01 0.01 0.00 0.00 0.00 0.01 0.02 0.01 0.01 0.03
0.01 0.01 0.01 0.01 0.01 0.01 0.00 0.01 0.01 0.01 0.01 0.01 0.01 0.01 0.01 0.01 0.01 0.02 0.02 0.03 0.04 0.04 0.05 0.05 0.06 0.07 0.06 0.04 0.02 0.02 0.02 0.02 0.03 0.03 0.02 0.01 0.00 0.00 0.01 0.02 0.02 0.02 0.02 0.05
0.00 0.00 0.00 0.02 0.01 0.01 0.01 0.01 0.01 0.01 0.01 0.02 0.02 0.01 0.01 0.01 0.01 0.01 0.02 0.02 0.03 0.04 0.04 0.05 0.05 0.05 0.04 0.03 0.02 0.01 0.01 0.01 0.01 0.01 0.01 0.01 0.01 0.01 0.01 0.02 0.02 0.02 0.04 0.06
0.01 0.00 0.01 0.01 0.01 0.01 0.01 0.01 0.00 0.00 0.00 0.01 0.02 0.02 0.01 0.01 0.01 0.01 0.02 0.02 0.03 0.04 0.04 0.03 0.04 0.03 0.04 0.02 0.02 0.01 0.01 0.01 0.01 0.01 0.01 0.01 0.01 0.01 0.02 0.02 0.01 0.02 0.04 0.06
0.01 0.01 0.01 0.00 0.01 0.02 0.01 0.01 0.01 0.00 0.01 0.01 0.02 0.01 0.01 0.01 0.01 0.02 0.03 0.05 0.06 0.07 0.06 0.04 0.05 0.05 0.04 0.03 0.03 0.03 0.02 0.01 0.01 0.01 0.01 0.01 0.01 0.01 0.01 0.01 0.02 0.01 0.02 0.04
0.01 0.00 0.00 0.00 0.01 0.02 0.01 0.00 0.00 0.01 0.01 0.01 0.01 0.01 0.01 0.01 0.01 0.01 0.03 0.04 0.07 0.09 0.08 0.07 0.07 0.07 0.07 0.06 0.05 0.04 0.02 0.01 0.01 0.01 0.01 0.01 0.01 0.01 0.01 0.01 0.02 0.02 0.01 0.02
0.01 0.01 0.00 0.00 0.01 0.02 0.01 0.01 0.01 0.01 0.01 0.01 0.01 0.01 0.01 0.01 0.01 0.01 0.02 0.02 0.04 0.06 0.05 0.05 0.05 0.05 0.05 0.05 0.02 0.01 0.03 0.03 0.02 0.03 0.02 0.02 0.02 0.01 0.01 0.01 0.01 0.02 0.01 0.01
0.01 0.00 0.00 0.00 0.01 0.01 0.01 0.02 0.01 0.01 0.01 0.01 0.01 0.01 0.00 0.00 0.01 0.02 0.03 0.04 0.05 0.05 0.04 0.03 0.03 0.03 0.03 0.03 0.02 0.01 0.02 0.02 0.02 0.03 0.03 0.02 0.02 0.01 0.02 0.01 0.01 0.02 0.02 0.01
0.01 0.00 0.00 0.00 0.00 0.01 0.03 0.02 0.01 0.01 0.01 0.01 0.01 0.01 0.00 0.00 0.01 0.03 0.04 0.05 0.05 0.06 0.05 0.03 0.02 0.02 0.02 0.02 0.01 0.01 0.02 0.01 0.01 0.01 0.01 0.01 0.01 0.01 0.01 0.01 0.01 0.01 0.01 0.01
0.01 0.00 0.00 0.00 0.00 0.02 0.04 0.02 0.02 0.02 0.01 0.01 0.01 0.01 0.01 0.00 0.01 0.02 0.03 0.04 0.04 0.05 0.06 0.05 0.03 0.01 0.00 0.01 0.01 0.01 0.02 0.01 0.01 0.01 0.01 0.01 0.01 0.00 0.00 0.00 0.00 0.00 0.00 0.00
0.00 0.00 0.00 0.00 0.00 0.01 0.02 0.02 0.02 0.02 0.02 0.01 0.02 0.01 0.00 0.00 0.00 0.00 0.01 0.02 0.02 0.02 0.03 0.03 0.02 0.01 0.00 0.00 0.00 0.00 0.00 0.00 0.01 0.00 0.00 0.00 0.00 0.00 0.00 0.00 0.00 0.00 0.00 0.00
0.00 0.00 0.00 0.00 0.00 0.01 0.01 0.01 0.01 0.01 0.01 0.01 0.02 0.01 0.00 0.00 0.00 0.00 0.00 0.00 0.01 0.01 0.01 0.02 0.01 0.01 0.00 0.00 0.00 0.00 0.00 0.00 0.00 0.00 0.00 0.00 0.00 0.00 0.00 0.00 0.00 0.00 0.00 0.00
0.00 0.00 0.01 0.01 0.01 0.01 0.01 0.01 0.01 0.01 0.01 0.01 0.01 0.01 0.00 0.00 0.00 0.00 0.00 0.00 0.01 0.01 0.02 0.01 0.01 0.01 0.01 0.00 0.01 0.00 0.00 0.00 0.00 0.00 0.00 0.00 0.00 0.00 0.00 0.00 0.00 0.00 0.00 0.00
0.00 0.00 0.00 0.01 0.01 0.01 0.01 0.01 0.00 0.00 0.00 0.01 0.01 0.01 0.00 0.01 0.01 0.01 0.01 0.01 0.01 0.01 0.01 0.01 0.02 0.01 0.01 0.01 0.00 0.00 0.00 0.00 0.00 0.00 0.00 0.00 0.00 0.00 0.00 0.00 0.00 0.00 0.00 0.00
0.00 0.00 0.00 0.00 0.01 0.01 0.01 0.01 0.00 0.00 0.00 0.00 0.00 0.00 0.00 0.00 0.01 0.02 0.02 0.02 0.02 0.01 0.01 0.01 0.01 0.01 0.01 0.01 0.01 0.00 0.00 0.00 0.00 0.00 0.00 0.00 0.00 0.00 0.00 0.00 0.00 0.00 0.00 0.00
0.00 0.00 0.00 0.00 0.00 0.01 0.01 0.00 0.00 0.00 0.00 0.00 0.00 0.00 0.00 0.00 0.01 0.01 0.01 0.01 0.02 0.02 0.02 0.01 0.01 0.01 0.01 0.00 0.01 0.00 0.00 0.00 0.00 0.00 0.00 0.00 0.00 0.00 0.00 0.00 0.00 0.00 0.00 0.00
0.00 0.00 0.00 0.00 0.01 0.01 0.01 0.01 0.00 0.00 0.00 0.00 0.00 0.00 0.00 0.00 0.01 0.01 0.00 0.00 0.01 0.02 0.02 0.01 0.01 0.01 0.01 0.00 0.00 0.00 0.00 0.00 0.00 0.00 0.00 0.00 0.00 0.00 0.00 0.00 0.00 0.00 0.00 0.00
0.00 0.00 0.00 0.00 0.01 0.01 0.01 0.01 0.01 0.00 0.00 0.00 0.00 0.00 0.00 0.01 0.01 0.01 0.00 0.00 0.01 0.01 0.01 0.01 0.01 0.00 0.00 0.00 0.00 0.00 0.00 0.00 0.00 0.00 0.00 0.00 0.00 0.00 0.00 0.00 0.00 0.00 0.00 0.00
0.00 0.00 0.00 0.00 0.01 0.01 0.01 0.01 0.01 0.00 0.00 0.00 0.00 0.00 0.00 0.01 0.00 0.00 0.00 0.00 0.00 0.01 0.01 0.01 0.01 0.00 0.00 0.00 0.01 0.00 0.00 0.00 0.00 0.00 0.00 0.00 0.00 0.00 0.00 0.00 0.00 0.00 0.00 0.00
0.00 0.00 0.00 0.00 0.01 0.01 0.01 0.01 0.01 0.00 0.00 0.00 0.00 0.00 0.00 0.00 0.00 0.00 0.00 0.00 0.00 0.00 0.01 0.01 0.00 0.00 0.01 0.01 0.01 0.00 0.00 0.00 0.00 0.00 0.00 0.00 0.00 0.00 0.00 0.00 0.00 0.00 0.00 0.00
0.00 0.00 0.00 0.00 0.00 0.00 0.00 0.00 0.00 0.00 0.00 0.00 0.00 0.00 0.00 0.00 0.00 0.00 0.00 0.00 0.01 0.01 0.00 0.01 0.01 0.01 0.01 0.01 0.01 0.01 0.00 0.00 0.00 0.00 0.00 0.00 0.00 0.00 0.00 0.00 0.00 0.00 0.00 0.01
0.00 0.00 0.00 0.00 0.00 0.00 0.00 0.00 0.00 0.00 0.00 0.00 0.00 0.00 0.00 0.00 0.00 0.00 0.00 0.00 0.01 0.01 0.01 0.00 0.01 0.02 0.02 0.02 0.02 0.01 0.01 0.00 0.00 0.00 0.01 0.01 0.00 0.00 0.00 0.00 0.00 0.00 0.00 0.00
0.00 0.00 0.00 0.00 0.00 0.00 0.00 0.00 0.00 0.00 0.00 0.00 0.00 0.00 0.00 0.00 0.00 0.00 0.00 0.00 0.00 0.01 0.01 0.01 0.01 0.01 0.01 0.01 0.01 0.01 0.01 0.01 0.01 0.01 0.01 0.01 0.01 0.00 0.00 0.00 0.00 0.00 0.00 0.00
0.00 0.00 0.00 0.00 0.00 0.00 0.00 0.00 0.00 0.00 0.00 0.00 0.00 0.00 0.00 0.00 0.00 0.00 0.00 0.00 0.00 0.01 0.01 0.02 0.01 0.01 0.00 0.01 0.01 0.00 0.00 0.01 0.01 0.01 0.01 0.01 0.01 0.00 0.00 0.01 0.01 0.00 0.00 0.00
0.00 0.00 0.00 0.00 0.00 0.00 0.00 0.00 0.00 0.00 0.00 0.00 0.00 0.00 0.00 0.00 0.00 0.00 0.00 0.00 0.00 0.00 0.01 0.01 0.01 0.00 0.00 0.00 0.00 0.00 0.00 0.00 0.00 0.00 0.00 0.00 0.00 0.00 0.00 0.00 0.01 0.00 0.00 0.00
0.00 0.00 0.00 0.00 0.00 0.00 0.00 0.00 0.00 0.00 0.00 0.00 0.00 0.00 0.00 0.00 0.00 0.00 0.00 0.00 0.00 0.00 0.01 0.01 0.01 0.00 0.00 0.00 0.00 0.01 0.00 0.00 0.00 0.00 0.00 0.00 0.00 0.00 0.01 0.00 0.00 0.00 0.00 0.00
MSLP
1015.02 1015.14 1015.20 1015.21 1015.20 1015.18 1015.17 1015.15 1015.13 1015.08 1015.00 1014.90 1014.79 1014.68 1014.59 1014.55 1014.58 1014.68 1014.87 1015.13 1015.45 1015.81 1016.19 1016.56 1016.90 1017.20 1017.46 1017.68 1017.87 1018.05 1018.23 1018.42 1018.63 1018.86 1019.12 1019.40 1019.68 1019.94 1020.16 1020.33 1020.44 1020.48 1020.43 1020.33
1015.13 1015.14 1015.04 1014.87 1014.67 1014.49 1014.35 1014.28 1014.26 1014.31 1014.41 1014.54 1014.70 1014.86 1015.02 1015.19 1015.36 1015.54 1015.75 1015.98 1016.22 1016.49 1016.77 1017.04 1017.30 1017.55 1017.77 1017.96 1018.14 1018.30 1018.47 1018.64 1018.84 1019.07 1019.32 1019.59 1019.87 1020.14 1020.37 1020.55 1020.66 1020.69 1020.63 1020.51
1015.28 1015.17 1014.92 1014.59 1014.23 1013.91 1013.68 1013.57 1013.59 1013.74 1014.00 1014.34 1014.73 1015.13 1015.51 1015.85 1016.15 1016.40 1016.62 1016.81 1016.99 1017.17 1017.35 1017.54 1017.73 1017.91 1018.09 1018.25 1018.40 1018.55 1018.69 1018.84 1019.02 1019.23 1019.47 1019.73 1020.00 1020.27 1020.51 1020.69 1020.80 1020.83 1020.77 1020.64
1015.44 1015.21 1014.83 1014.36 1013.88 1013.47 1013.17 1013.05 1013.10 1013.35 1013.74 1014.26 1014.84 1015.42 1015.98 1016.46 1016.85 1017.15 1017.37 1017.53 1017.65 1017.75 1017.86 1017.97 1018.10 1018.24 1018.38 1018.51 1018.64 1018.76 1018.89 1019.02 1019.18 1019.36 1019.57 1019.82 1020.08 1020.34 1020.57 1020.75 1020.86 1020.89 1020.83 1020.69
1015.52 1015.18 1014.69 1014.14 1013.59 1013.12 1012.81 1012.69 1012.80 1013.12 1013.63 1014.27 1014.98 1015.69 1016.36 1016.93 1017.38 1017.71 1017.93 1018.06 1018.14 1018.19 1018.24 1018.31 1018.39 1018.50 1018.62 1018.74 1018.86 1018.97 1019.08 1019.20 1019.33 1019.49 1019.68 1019.89 1020.13 1020.37 1020.58 1020.75 1020.86 1020.88 1020.82 1020.68
1015.41 1014.99 1014.46 1013.86 1013.30 1012.83 1012.54 1012.47 1012.63 1013.03 1013.61 1014.33 1015.13 1015.92 1016.64 1017.26 1017.74 1018.07 1018.29 1018.40 1018.45 1018.47 1018.50 1018.54 1018.62 1018.71 1018.83 1018.96 1019.08 1019.19 1019.30 1019.41 1019.52 1019.65 1019.81 1019.99 1020.19 1020.39 1020.58 1020.73 1020.81 1020.83 1020.77 1020.64
1015.04 1014.60 1014.05 1013.48 1012.96 1012.56 1012.35 1012.35 1012.58 1013.04 1013.68 1014.45 1015.28 1016.10 1016.84 1017.47 1017.95 1018.28 1018.49 1018.59 1018.64 1018.66 1018.68 1018.73 1018.81 1018.93 1019.06 1019.21 1019.34 1019.47 1019.58 1019.68 1019.79 1019.89 1020.02 1020.15 1020.31 1020.46 1020.60 1020.71 1020.77 1020.77 1020.71 1020.58
1014.39 1013.96 1013.47 1012.99 1012.58 1012.30 1012.19 1012.30 1012.63 1013.15 1013.84 1014.63 1015.47 1016.27 1017.00 1017.61 1018.08 1018.40 1018.61 1018.72 1018.77 1018.81 1018.86 1018.93 1019.04 1019.19 1019.35 1019.52 1019.68 1019.83 1019.95 1020.05 1020.14 1020.22 1020.30 1020.39 1020.48 1020.57 1020.65 1020.71 1020.73 1020.71 1020.64 1020.52
1013.49 1013.12 1012.75 1012.40 1012.15 1012.03 1012.09 1012.33 1012.75 1013.35 1014.07 1014.87 1015.69 1016.47 1017.17 1017.75 1018.19 1018.51 1018.72 1018.85 1018.93 1019.00 1019.09 1019.20 1019.35 1019.53 1019.72 1019.92 1020.10 1020.26 1020.39 1020.48 1020.55 1020.60 1020.64 1020.67 1020.70 1020.73 1020.74 1020.74 1020.71 1020.66 1020.57 1020.46
1012.42 1012.17 1011.94 1011.78 1011.72 1011.80 1012.03 1012.42 1012.96 1013.62 1014.38 1015.18 1015.97 1016.71 1017.37 1017.91 1018.34 1018.66 1018.88 1019.04 1019.16 1019.27 1019.40 1019.55 1019.74 1019.94 1020.16 1020.37 1020.57 1020.73 1020.86 1020.94 1020.99 1021.00 1020.99 1020.97 1020.93 1020.88 1020.82 1020.75 1020.67 1020.58 1020.48 1020.37
1011.31 1011.19 1011.14 1011.19 1011.34 1011.63 1012.05 1012.58 1013.23 1013.96 1014.73 1015.52 1016.28 1016.98 1017.60 1018.11 1018.53 1018.85 1019.09 1019.28 1019.45 1019.60 1019.77 1019.96 1020.17 1020.39 1020.62 1020.83 1021.02 1021.18 1021.28 1021.35 1021.37 1021.35 1021.29 1021.21 1021.10 1020.98 1020.86 1020.73 1020.59 1020.46 1020.34 1020.23
1010.26 1010.29 1010.43 1010.68 1011.05 1011.54 1012.12 1012.80 1013.53 1014.31 1015.10 1015.86 1016.59 1017.24 1017.82 1018.30 1018.71 1019.04 1019.31 1019.54 1019.75 1019.95 1020.15 1020.37 1020.59 1020.81 1021.03 1021.22 1021.39 1021.52 1021.60 1021.64 1021.62 1021.56 1021.47 1021.33 1021.18 1021.00 1020.81 1020.62 1020.44 1020.27 1020.12 1020.00
1009.35 1009.54 1009.85 1010.30 1010.86 1011.51 1012.24 1013.02 1013.83 1014.63 1015.41 1016.15 1016.83 1017.43 1017.97 1018.44 1018.84 1019.18 1019.48 1019.75 1019.99 1020.23 1020.46 1020.69 1020.91 1021.12 1021.32 1021.48 1021.61 1021.71 1021.76 1021.76 1021.72 1021.63 1021.50 1021.33 1021.13 1020.91 1020.67 1020.44 1020.21 1020.00 1019.82 1019.68
1008.59 1008.93 1009.41 1010.02 1010.73 1011.53 1012.37 1013.22 1014.06 1014.87 1015.63 1016.32 1016.95 1017.51 1018.01 1018.46 1018.85 1019.21 1019.54 1019.84 1020.12 1020.39 1020.64 1020.87 1021.09 1021.28 1021.44 1021.57 1021.66 1021.72 1021.74 1021.72 1021.65 1021.54 1021.39 1021.20 1020.98 1020.73 1020.46 1020.19 1019.92 1019.68 1019.46 1019.29
1007.97 1008.43 1009.05 1009.80 1010.65 1011.55 1012.46 1013.35 1014.21 1015.00 1015.71 1016.36 1016.93 1017.45 1017.91 1018.34 1018.73 1019.10 1019.45 1019.79 1020.10 1020.39 1020.66 1020.89 1021.09 1021.26 1021.39 1021.49 1021.55 1021.58 1021.57 1021.53 1021.46 1021.34 1021.18 1020.99 1020.76 1020.49 1020.20 1019.91 1019.61 1019.33 1019.08 1018.87
1007.41 1008.00 1008.75 1009.61 1010.55 1011.52 1012.48 1013.39 1014.23 1014.99 1015.66 1016.25 1016.77 1017.24 1017.67 1018.08 1018.48 1018.86 1019.23 1019.59 1019.93 1020.24 1020.52 1020.76 1020.95 1021.10 1021.21 1021.29 1021.32 1021.34 1021.32 1021.27 1021.20 1021.09 1020.94 1020.75 1020.52 1020.25 1019.96 1019.64 1019.33 1019.02 1018.74 1018.49
1006.88 1007.58 1008.43 1009.39 1010.40 1011.42 1012.40 1013.31 1014.13 1014.85 1015.47 1016.02 1016.49 1016.93 1017.33 1017.73 1018.12 1018.51 1018.91 1019.29 1019.65 1019.98 1020.27 1020.51 1020.70 1020.85 1020.95 1021.01 1021.05 1021.06 1021.04 1021.00 1020.94 1020.85 1020.72 1020.54 1020.32 1020.06 1019.77 1019.45 1019.11 1018.78 1018.47 1018.19
1006.33 1007.14 1008.08 1009.11 1010.18 1011.23 1012.22 1013.12 1013.92 1014.61 1015.19 1015.70 1016.14 1016.54 1016.93 1017.32 1017.71 1018.12 1018.52 1018.92 1019.30 1019.64 1019.95 1020.20 1020.40 1020.55 1020.66 1020.73 1020.77 1020.80 1020.80 1020.78 1020.74 1020.67 1020.56 1020.40 1020.20 1019.95 1019.65 1019.32 1018.98 1018.63 1018.29 1017.99
1005.78 1006.69 1007.71 1008.80 1009.90 1010.96 1011.96 1012.85 1013.62 1014.28 1014.84 1015.32 1015.74 1016.13 1016.51 1016.90 1017.30 1017.71 1018.12 1018.53 1018.92 1019.28 1019.60 1019.87 1020.08 1020.25 1020.38 1020.47 1020.54 1020.59 1020.61 1020.62 1020.60 1020.55 1020.46 1020.33 1020.14 1019.89 1019.60 1019.27 1018.92 1018.56 1018.21 1017.89
1005.28 1006.26 1007.34 1008.46 1009.58 1010.65 1011.63 1012.50 1013.26 1013.90 1014.45 1014.91 1015.33 1015.72 1016.10 1016.49 1016.89 1017.31 1017.73 1018.15 1018.54 1018.91 1019.24 1019.53 1019.76 1019.96 1020.11 1020.24 1020.34 1020.41 1020.47 1020.51 1020.51 1020.48 1020.41 1020.29 1020.11 1019.87 1019.58 1019.25 1018.90 1018.54 1018.18 1017.85
1004.87 1005.90 1007.01 1008.15 1009.26 1010.31 1011.26 1012.11 1012.85 1013.47 1014.01 1014.48 1014.89 1015.29 1015.68 1016.07 1016.48 1016.90 1017.32 1017.74 1018.14 1018.52 1018.86 1019.16 1019.42 1019.64 1019.83 1019.98 1020.12 1020.23 1020.32 1020.38 1020.41 1020.40 1020.34 1020.22 1020.05 1019.81 1019.53 1019.21 1018.86 1018.51 1018.16 1017.83
1004.61 1005.67 1006.77 1007.88 1008.95 1009.96 1010.87 1011.68 1012.39 1013.00 1013.53 1013.99 1014.42 1014.82 1015.22 1015.62 1016.03 1016.45 1016.87 1017.29 1017.69 1018.06 1018.41 1018.72 1019.00 1019.25 1019.47 1019.66 1019.83 1019.98 1020.10 1020.18 1020.23 1020.23 1020.18 1020.07 1019.90 1019.67 1019.40 1019.08 1018.75 1018.41 1018.08 1017.77
1004.52 1005.56 1006.62 1007.66 1008.67 1009.60 1010.45 1011.21 1011.87 1012.46 1012.98 1013.44 1013.88 1014.29 1014.70 1015.11 1015.52 1015.93 1016.34 1016.75 1017.13 1017.50 1017.85 1018.17 1018.47 1018.74 1018.99 1019.21 1019.41 1019.59 1019.73 1019.84 1019.90 1019.92 1019.87 1019.77 1019.60 1019.38 1019.12 1018.83 1018.52 1018.20 1017.89 1017.61
1004.58 1005.56 1006.54 1007.49 1008.40 1009.24 1010.00 1010.69 1011.30 1011.86 1012.36 1012.82 1013.26 1013.68 1014.09 1014.50 1014.91 1015.31 1015.71 1016.10 1016.47 1016.83 1017.16 1017.49 1017.79 1018.08 1018.35 1018.60 1018.83 1019.03 1019.20 1019.32 1019.40 1019.42 1019.38 1019.29 1019.13 1018.93 1018.68 1018.41 1018.13 1017.85 1017.58 1017.33
1004.72 1005.62 1006.49 1007.33 1008.12 1008.85 1009.52 1010.13 1010.68 1011.20 1011.68 1012.13 1012.57 1012.99 1013.41 1013.81 1014.21 1014.60 1014.98 1015.34 1015.69 1016.03 1016.36 1016.68 1016.98 1017.28 1017.56 1017.83 1018.07 1018.29 1018.48 1018.61 1018.70 1018.73 1018.70 1018.62 1018.48 1018.29 1018.07 1017.83 1017.58 1017.34 1017.10 1016.89
1004.88 1005.68 1006.44 1007.16 1007.82 1008.44 1009.01 1009.54 1010.04 1010.51 1010.97 1011.41 1011.85 1012.27 1012.68 1013.08 1013.46 1013.83 1014.19 1014.53 1014.85 1015.17 1015.48 1015.78 1016.08 1016.37 1016.66 1016.93 1017.18 1017.41 1017.60 1017.74 1017.84 1017.87 1017.85 1017.78 1017.65 1017.49 1017.30 1017.09 1016.88 1016.68 1016.48 1016.31
1004.97 1005.68 1006.33 1006.93 1007.48 1008.00 1008.49 1008.95 1009.40 1009.85 1010.29 1010.72 1011.15 1011.57 1011.97 1012.36 1012.73 1013.08 1013.41 1013.72 1014.02 1014.30 1014.58 1014.86 1015.14 1015.42 1015.70 1015.96 1016.21 1016.43 1016.62 1016.76 1016.86 1016.89 1016.88 1016.81 1016.70 1016.56 1016.40 1016.22 1016.05 1015.88 1015.73 1015.59
Thickness
5671 5676 5676 5674 5673 5670 5664 5660 5654 5658 5657 5660 5660 5658 5655 5652 5648 5645 5641 5636 5632 5628 5623 5618 5613 5609 5603 5598 5593 5589 5585 5581 5577 5573 5570 5567 5564 5562 5561 5560 5559 5559 5559 5559
5666 5672 5672 5668 5670 5669 5665 5662 5658 5658 5656 5661 5657 5654 5649 5646 5643 5640 5636 5632 5628 5623 5619 5613 5608 5604 5598 5593 5588 5583 5579 5575 5571 5567 5563 5560 5558 5556 5554 5553 5553 5553 5552 5553
5652 5663 5665 5656 5665 5666 5664 5664 5660 5654 5657 5655 5651 5649 5646 5643 5640 5636 5632 5628 5623 5619 5615 5610 5604 5600 5594 5589 5584 5579 5574 5570 5565 5561 5558 5555 5553 5551 5549 5548 5547 5547 5547 5548
5645 5653 5645 5659 5673 5672 5665 5663 5663 5660 5656 5653 5650 5645 5642 5640 5636 5632 5628 5624 5619 5614 5610 5605 5600 5595 5590 5584 5579 5574 5570 5565 5561 5557 5554 5551 5548 5546 5545 5543 5543 5543 5543 5543
5637 5640 5647 5662 5670 5668 5662 5658 5662 5656 5651 5647 5644 5640 5636 5635 5633 5629 5626 5621 5616 5611 5607 5601 5596 5591 5586 5580 5575 5570 5566 5561 5558 5554 5551 5548 5545 5543 5542 5541 5540 5540 5540 5540
5637 5640 5639 5657 5673 5674 5665 5653 5659 5655 5648 5643 5640 5632 5632 5632 5629 5624 5621 5617 5612 5608 5604 5599 5594 5589 5583 5576 5571 5567 5563 5558 5555 5551 5549 5546 5543 5541 5539 5538 5538 5538 5538 5538
5637 5637 5645 5665 5673 5670 5650 5652 5660 5654 5648 5642 5639 5637 5635 5630 5625 5622 5618 5614 5609 5605 5600 5596 5591 5586 5580 5574 5569 5565 5560 5556 5552 5549 5546 5544 5541 5539 5538 5537 5536 5536 5536 5536
5634 5634 5643 5668 5667 5660 5658 5661 5658 5652 5647 5642 5637 5634 5631 5627 5623 5619 5615 5610 5606 5601 5597 5592 5588 5583 5577 5572 5568 5563 5559 5554 5550 5547 5545 5543 5541 5539 5537 5536 5535 5535 5535 5535
5644 5647 5659 5664 5665 5665 5662 5658 5655 5650 5645 5640 5634 5630 5627 5623 5619 5616 5613 5608 5604 5599 5594 5589 5585 5581 5576 5571 5567 5562 5557 5553 5549 5546 5544 5543 5541 5539 5537 5536 5535 5535 5535 5535
5648 5655 5661 5662 5663 5663 5661 5658 5655 5650 5645 5640 5634 5629 5625 5620 5616 5613 5610 5606 5601 5597 5593 5588 5584 5580 5576 5571 5566 5562 5557 5553 5550 5547 5544 5543 5541 5540 5538 5537 5536 5536 5536 5536
5649 5656 5659 5661 5661 5660 5657 5655 5651 5646 5643 5639 5633 5628 5623 5619 5615 5612 5608 5604 5600 5596 5592 5588 5584 5580 5576 5572 5567 5562 5558 5554 5551 5548 5546 5543 5542 5541 5540 5539 5538 5537 5537 5537
5652 5659 5657 5658 5660 5658 5654 5650 5647 5643 5638 5635 5633 5628 5623 5618 5614 5610 5607 5603 5599 5595 5592 5588 5584 5580 5577 5573 5568 5564 5559 5555 5552 5549 5547 5545 5543 5543 5543 5542 5542 5542 5541 5540
5666 5666 5662 5662 5659 5657 5653 5649 5646 5643 5638 5633 5630 5627 5623 5617 5613 5609 5606 5603 5600 5596 5593 5589 5585 5581 5578 5575 5570 5566 5561 5558 5554 5552 5549 5547 5546 5545 5545 5546 5546 5546 5546 5545
5668 5665 5659 5659 5657 5656 5653 5649 5645 5641 5637 5634 5629 5625 5621 5617 5613 5610 5607 5604 5601 5597 5594 5590 5586 5583 5580 5577 5573 5569 5565 5562 5558 5555 5553 5550 5548 5547 5546 5546 5547 5549 5549 5549
5668 5669 5664 5661 5657 5653 5650 5646 5642 5637 5634 5631 5628 5625 5621 5617 5614 5612 5609 5605 5601 5598 5594 5591 5588 5585 5583 5579 5575 5571 5568 5565 5562 5559 5556 5554 5552 5551 5550 5549 5549 5550 5551 5553
5667 5665 5663 5659 5655 5652 5648 5645 5641 5637 5634 5631 5627 5625 5622 5619 5616 5613 5609 5606 5602 5599 5596 5593 5590 5588 5585 5582 5578 5575 5571 5569 5566 5563 5560 5558 5556 5555 5554 5553 5553 5553 5554 5555
5665 5661 5659 5656 5654 5652 5650 5647 5644 5640 5636 5632 5629 5626 5622 5619 5615 5612 5610 5607 5604 5601 5598 5595 5593 5591 5588 5584 5581 5578 5575 5572 5570 5567 5565 5563 5561 5560 5558 5557 5557 5557 5558 5559
5677 5673 5669 5664 5660 5655 5652 5649 5646 5642 5638 5635 5631 5627 5622 5619 5616 5613 5611 5607 5604 5601 5599 5598 5596 5593 5590 5587 5584 5581 5578 5576 5573 5571 5569 5566 5565 5563 5562 5561 5561 5561 5563 5564
5676 5673 5669 5666 5663 5659 5654 5650 5647 5644 5640 5636 5632 5627 5624 5621 5618 5615 5611 5608 5605 5602 5602 5601 5598 5595 5592 5589 5587 5584 5581 5579 5577 5574 5572 5570 5569 5567 5566 5565 5565 5565 5566 5566
5677 5674 5670 5666 5663 5659 5655 5652 5649 5645 5641 5637 5633 5628 5625 5622 5620 5616 5612 5610 5609 5608 5607 5604 5600 5597 5595 5593 5590 5587 5584 5582 5580 5578 5576 5574 5573 5571 5570 5569 5569 5569 5569 5569
5676 5673 5670 5666 5663 5660 5658 5654 5650 5646 5643 5639 5634 5631 5628 5625 5621 5618 5614 5612 5613 5611 5609 5605 5603 5600 5598 5596 5593 5590 5588 5585 5583 5581 5579 5578 5576 5575 5574 5573 5573 5572 5572 5572
5677 5674 5670 5667 5663 5660 5658 5655 5652 5649 5644 5640 5637 5633 5629 5625 5622 5619 5617 5617 5617 5614 5611 5608 5606 5604 5601 5598 5595 5593 5591 5589 5587 5585 5583 5581 5579 5578 5577 5576 5576 5575 5575 5575
5678 5675 5672 5668 5665 5661 5658 5655 5653 5650 5646 5643 5639 5636 5632 5629 5626 5622 5620 5620 5619 5616 5614 5611 5609 5607 5603 5600 5598 5596 5594 5591 5590 5588 5586 5584 5582 5580 5579 5579 5578 5577 5577 5576
5678 5675 5672 5668 5665 5660 5657 5655 5653 5651 5649 5646 5643 5639 5635 5631 5628 5627 5626 5624 5621 5619 5616 5614 5612 5608 5605 5602 5600 5598 5596 5594 5592 5590 5588 5586 5584 5583 5581 5580 5579 5579 5578 5577
5678 5674 5671 5667 5663 5661 5659 5656 5653 5650 5648 5645 5643 5641 5638 5636 5633 5631 5629 5626 5623 5620 5619 5617 5614 5611 5608 5605 5603 5601 5599 5597 5595 5593 5590 5588 5586 5584 5583 5581 5580 5579 5578 5577
5676 5673 5671 5669 5667 5663 5660 5656 5653 5650 5648 5645 5643 5641 5639 5637 5635 5633 5630 5628 5626 5623 5620 5618 5616 5613 5610 5608 5605 5603 5601 5599 5596 5594 5591 5589 5587 5585 5584 5582 5580 5579 5577 5576
5675 5672 5669 5666 5665 5663 5661 5658 5654 5651 5649 5647 5644 5643 5641 5638 5636 5634 5632 5629 5627 5624 5622 5620 5617 5614 5612 5609 5607 5604 5602 5599 5596 5594 5592 5589 5587 5585 5583 5581 5579 5577 5575 5574